SWR93A SAEZ-SBGR

Flight info

Callsign SWR93A
Flight time 2h 8m
Altitude 41000
Route DORVO1J DORVO UN857 OGRUN UZ121 BUXUK
Aircraft A343/H-SDE2E3FGHIJ4J5M1P2RWXY/LB1D1

Departure

Time 2026-05-04 07:52
Airport Ezeiza International Airport - Ministro Pistarini (SAEZ)

Arrival

Time 2026-05-04 10:00
Airport São Paulo/Guarulhos–Governor André Franco Montoro International Airport (SBGR)
Time Latitude Longitude Altitude Speed Heading
2026-05-04 07:41 -34.81512 -58.53850 104 ft 0 kts 349°
2026-05-04 07:42 -34.81515 -58.53849 77 ft 3 kts 349°
2026-05-04 07:42 -34.81541 -58.53844 70 ft 4 kts 350°
2026-05-04 07:43 -34.81568 -58.53838 68 ft 4 kts 351°
2026-05-04 07:43 -34.81595 -58.53833 66 ft 4 kts 351°
2026-05-04 07:43 -34.81620 -58.53828 66 ft 2 kts 349°
2026-05-04 07:43 -34.81616 -58.53823 66 ft 4 kts 48°
2026-05-04 07:44 -34.81616 -58.53794 66 ft 4 kts 96°
2026-05-04 07:44 -34.81619 -58.53761 68 ft 4 kts 94°
2026-05-04 07:44 -34.81607 -58.53738 74 ft 1 kts 282°
2026-05-04 07:44 -34.81602 -58.53733 66 ft 0 kts 222°
2026-05-04 07:45 -34.81602 -58.53734 66 ft 0 kts 222°
2026-05-04 07:47 -34.81604 -58.53735 66 ft 1 kts 222°
2026-05-04 07:47 -34.81633 -58.53767 66 ft 10 kts 222°
2026-05-04 07:47 -34.81693 -58.53840 66 ft 13 kts 229°
2026-05-04 07:49 -34.81775 -58.54775 68 ft 19 kts 278°
2026-05-04 07:49 -34.81748 -58.54934 68 ft 20 kts 282°
2026-05-04 07:49 -34.81719 -58.55099 68 ft 20 kts 283°
2026-05-04 07:50 -34.81697 -58.55263 71 ft 18 kts 259°
2026-05-04 07:50 -34.81764 -58.55339 73 ft 13 kts 190°
2026-05-04 07:50 -34.81855 -58.55312 66 ft 14 kts 161°
2026-05-04 07:50 -34.81917 -58.55263 72 ft 13 kts 118°
2026-05-04 07:51 -34.81969 -58.54990 69 ft 61 kts 102°
2026-05-04 07:51 -34.82101 -58.54246 73 ft 117 kts 102°
2026-05-04 07:51 -34.82304 -58.53098 130 ft 156 kts 102°
2026-05-04 07:51 -34.82519 -58.51796 653 ft 158 kts 100°
2026-05-04 07:52 -34.82806 -58.50488 1245 ft 164 kts 109°
2026-05-04 07:52 -34.83260 -58.49096 1545 ft 193 kts 105°
2026-05-04 07:52 -34.83688 -58.47393 1835 ft 228 kts 104°
2026-05-04 07:52 -34.84143 -58.45450 2462 ft 246 kts 103°
2026-05-04 07:53 -34.84622 -58.43405 3304 ft 257 kts 104°
2026-05-04 07:54 -34.88474 -58.27552 9543 ft 295 kts 108°
2026-05-04 07:55 -34.89053 -58.25171 10375 ft 299 kts 108°
2026-05-04 07:55 -34.89661 -58.22678 10849 ft 316 kts 108°
2026-05-04 07:55 -34.90308 -58.20025 11184 ft 336 kts 108°
2026-05-04 07:55 -34.90987 -58.17231 11605 ft 350 kts 108°
2026-05-04 07:56 -34.91686 -58.14346 12192 ft 359 kts 108°
2026-05-04 07:56 -34.92398 -58.11399 12842 ft 366 kts 108°
2026-05-04 07:56 -34.93123 -58.08398 13512 ft 372 kts 109°
2026-05-04 07:56 -34.93860 -58.05345 14188 ft 378 kts 109°
2026-05-04 07:57 -34.94607 -58.02245 14816 ft 383 kts 109°
2026-05-04 07:57 -34.95363 -57.99107 15474 ft 387 kts 109°
2026-05-04 07:57 -34.96079 -57.95924 16131 ft 392 kts 105°
2026-05-04 07:57 -34.96375 -57.92594 16792 ft 400 kts 91°
2026-05-04 07:58 -34.95990 -57.89258 17402 ft 407 kts 75°
2026-05-04 07:58 -34.94874 -57.86056 18026 ft 413 kts 59°
2026-05-04 07:58 -34.93176 -57.83210 18631 ft 417 kts 50°
2026-05-04 07:58 -34.91303 -57.80478 19146 ft 422 kts 49°
2026-05-04 07:59 -34.89396 -57.77720 19674 ft 427 kts 49°
2026-05-04 07:59 -34.87475 -57.74926 20204 ft 432 kts 49°
2026-05-04 07:59 -34.85541 -57.72102 20730 ft 436 kts 49°
2026-05-04 07:59 -34.83591 -57.69251 21145 ft 441 kts 49°
2026-05-04 08:00 -34.81624 -57.66372 21466 ft 444 kts 48°
2026-05-04 08:00 -34.79639 -57.63467 21965 ft 448 kts 48°
2026-05-04 08:00 -34.77637 -57.60538 22471 ft 452 kts 48°
2026-05-04 08:02 -34.63161 -57.39450 25588 ft 475 kts 47°
2026-05-04 08:02 -34.61034 -57.36368 26003 ft 477 kts 47°
2026-05-04 08:02 -34.58894 -57.33271 26371 ft 480 kts 47°
2026-05-04 08:03 -34.56742 -57.30155 26767 ft 483 kts 47°
2026-05-04 08:03 -34.54578 -57.27026 27178 ft 485 kts 47°
2026-05-04 08:03 -34.52402 -57.23882 27553 ft 487 kts 47°
2026-05-04 08:03 -34.50220 -57.20731 27936 ft 490 kts 47°
2026-05-04 08:04 -34.48025 -57.17566 28309 ft 492 kts 47°
2026-05-04 08:04 -34.45817 -57.14384 28655 ft 494 kts 47°
2026-05-04 08:04 -34.43596 -57.11187 29018 ft 497 kts 47°
2026-05-04 08:04 -34.41364 -57.07977 29366 ft 499 kts 47°
2026-05-04 08:05 -34.39121 -57.04753 29697 ft 502 kts 47°
2026-05-04 08:05 -34.36863 -57.01511 30048 ft 504 kts 47°
2026-05-04 08:05 -34.34629 -56.98307 30374 ft 506 kts 47°
2026-05-04 08:05 -34.32353 -56.95044 30630 ft 508 kts 47°
2026-05-04 08:06 -34.30070 -56.91775 30923 ft 510 kts 47°
2026-05-04 08:06 -34.27773 -56.88490 31190 ft 512 kts 47°
2026-05-04 08:06 -34.25468 -56.85195 31460 ft 514 kts 47°
2026-05-04 08:06 -34.23158 -56.81893 31716 ft 515 kts 47°
2026-05-04 08:08 -34.06876 -56.58768 34005 ft 514 kts 46°
2026-05-04 08:08 -34.04554 -56.55483 34308 ft 514 kts 46°
2026-05-04 08:10 -33.86771 -56.30423 36282 ft 512 kts 46°
2026-05-04 08:11 -33.84441 -56.27170 36491 ft 513 kts 46°
2026-05-04 08:11 -33.79774 -56.20673 36953 ft 512 kts 45°
2026-05-04 08:11 -33.77488 -56.17488 37189 ft 512 kts 45°
2026-05-04 08:12 -33.75167 -56.14244 37385 ft 512 kts 46°
2026-05-04 08:12 -33.72845 -56.10993 37613 ft 512 kts 46°
2026-05-04 08:12 -33.70528 -56.07750 37840 ft 511 kts 46°
2026-05-04 08:12 -33.68212 -56.04511 38051 ft 511 kts 45°
2026-05-04 08:13 -33.65928 -56.01320 38285 ft 511 kts 45°
2026-05-04 08:13 -33.63609 -55.98087 38500 ft 510 kts 45°
2026-05-04 08:13 -33.61292 -55.94860 38710 ft 510 kts 45°
2026-05-04 08:13 -33.58978 -55.91639 38912 ft 510 kts 45°
2026-05-04 08:14 -33.56661 -55.88418 39083 ft 510 kts 45°
2026-05-04 08:14 -33.54344 -55.85201 39229 ft 510 kts 45°
2026-05-04 08:16 -33.35743 -55.59470 39310 ft 510 kts 45°
2026-05-04 08:16 -33.31084 -55.53055 39314 ft 510 kts 45°
2026-05-04 08:17 -33.26421 -55.46644 39315 ft 510 kts 45°
2026-05-04 08:17 -33.21753 -55.40239 39314 ft 510 kts 45°
2026-05-04 08:19 -33.03083 -55.14732 39314 ft 510 kts 45°
2026-05-04 08:20 -32.98433 -55.08406 39314 ft 510 kts 45°
2026-05-04 08:20 -32.93770 -55.02073 39318 ft 507 kts 45°
2026-05-04 08:21 -32.89117 -54.95765 39318 ft 507 kts 45°
2026-05-04 08:21 -32.84460 -54.89466 39313 ft 507 kts 45°
2026-05-04 08:22 -32.79803 -54.83175 39313 ft 507 kts 45°
2026-05-04 08:24 -32.61171 -54.58113 39310 ft 506 kts 45°
2026-05-04 08:24 -32.56500 -54.51858 39314 ft 506 kts 45°
2026-05-04 08:25 -32.51820 -54.45601 39313 ft 506 kts 45°
2026-05-04 08:25 -32.47140 -54.39353 39316 ft 507 kts 45°
2026-05-04 08:27 -32.28461 -54.14403 39285 ft 507 kts 46°
2026-05-04 08:28 -32.23856 -54.08131 39299 ft 508 kts 46°
2026-05-04 08:28 -32.19214 -54.01834 39307 ft 507 kts 45°
2026-05-04 08:29 -32.14565 -53.95554 39308 ft 508 kts 45°
2026-05-04 08:31 -31.93423 -53.74414 39311 ft 497 kts 27°
2026-05-04 08:33 -31.70182 -53.56732 39315 ft 498 kts 28°
2026-05-04 08:35 -31.46871 -53.39033 39322 ft 500 kts 28°
2026-05-04 08:35 -31.41029 -53.34615 39322 ft 500 kts 27°
2026-05-04 08:37 -31.20583 -53.19203 39332 ft 500 kts 27°
2026-05-04 08:38 -31.14731 -53.14806 39332 ft 500 kts 27°
2026-05-04 08:38 -31.08876 -53.10414 39329 ft 500 kts 27°
2026-05-04 08:40 -30.85464 -52.92915 39330 ft 500 kts 27°
2026-05-04 08:41 -30.79592 -52.88542 39328 ft 500 kts 27°
2026-05-04 08:41 -30.73730 -52.84183 39325 ft 500 kts 27°
2026-05-04 08:42 -30.67861 -52.79827 39330 ft 500 kts 27°
2026-05-04 08:42 -30.61991 -52.75470 39334 ft 500 kts 27°
2026-05-04 08:43 -30.56150 -52.71139 39333 ft 501 kts 27°
2026-05-04 08:43 -30.50279 -52.66794 39331 ft 501 kts 27°
2026-05-04 08:44 -30.44420 -52.62471 39336 ft 501 kts 27°
2026-05-04 08:46 -30.20893 -52.45153 39334 ft 500 kts 27°
2026-05-04 08:46 -30.15058 -52.40846 39318 ft 501 kts 27°
2026-05-04 08:47 -30.09263 -52.36359 39333 ft 502 kts 28°
2026-05-04 08:47 -30.03477 -52.31843 39333 ft 502 kts 28°
2026-05-04 08:48 -29.97678 -52.27355 39333 ft 502 kts 28°
2026-05-04 08:48 -29.91905 -52.22914 39331 ft 502 kts 28°
2026-05-04 08:49 -29.86094 -52.18456 39330 ft 502 kts 28°
2026-05-04 08:50 -29.65728 -52.02875 39325 ft 502 kts 27°
2026-05-04 08:51 -29.59906 -51.98434 39326 ft 502 kts 27°
2026-05-04 08:51 -29.54081 -51.93997 39311 ft 502 kts 27°
2026-05-04 08:52 -29.48284 -51.89587 39334 ft 503 kts 27°
2026-05-04 08:52 -29.42454 -51.85161 39333 ft 503 kts 27°
2026-05-04 08:54 -29.19096 -51.67471 39331 ft 504 kts 26°
2026-05-04 08:55 -29.13248 -51.63053 39332 ft 504 kts 26°
2026-05-04 08:55 -29.07388 -51.58639 39339 ft 504 kts 26°
2026-05-04 09:01 -28.46618 -51.13220 39327 ft 508 kts 25°
2026-05-04 09:01 -28.40705 -51.08833 39330 ft 508 kts 25°
2026-05-04 09:02 -28.34825 -51.04477 39324 ft 508 kts 25°
2026-05-04 09:02 -28.28906 -51.00099 39318 ft 509 kts 25°
2026-05-04 09:03 -28.22952 -50.95704 39326 ft 510 kts 25°
2026-05-04 09:03 -28.16993 -50.91309 39318 ft 510 kts 25°
2026-05-04 09:04 -28.11033 -50.86917 39314 ft 510 kts 25°
2026-05-04 09:04 -28.05112 -50.82559 39313 ft 511 kts 25°
2026-05-04 09:05 -27.99233 -50.77987 39306 ft 515 kts 28°
2026-05-04 09:05 -27.93444 -50.73121 39313 ft 519 kts 28°
2026-05-04 09:06 -27.87650 -50.68258 39307 ft 518 kts 28°
2026-05-04 09:08 -27.64342 -50.49142 39300 ft 520 kts 27°
2026-05-04 09:08 -27.58476 -50.44357 39306 ft 520 kts 27°
2026-05-04 09:09 -27.52606 -50.39572 39296 ft 520 kts 27°
2026-05-04 09:09 -27.46738 -50.34795 39299 ft 519 kts 27°
2026-05-04 09:10 -27.40907 -50.30058 39298 ft 520 kts 27°
2026-05-04 09:10 -27.35049 -50.25306 39294 ft 520 kts 27°
2026-05-04 09:11 -27.29187 -50.20553 39297 ft 519 kts 27°
2026-05-04 09:11 -27.23323 -50.15805 39288 ft 519 kts 26°
2026-05-04 09:12 -27.17448 -50.11056 39286 ft 520 kts 26°
2026-05-04 09:14 -26.93937 -49.92118 39287 ft 521 kts 26°
2026-05-04 09:14 -26.88036 -49.87381 39289 ft 521 kts 26°
2026-05-04 09:15 -26.82138 -49.82651 39286 ft 521 kts 26°
2026-05-04 09:15 -26.76231 -49.77927 39283 ft 521 kts 26°
2026-05-04 09:17 -26.49755 -49.56784 39280 ft 522 kts 26°
2026-05-04 09:18 -26.43841 -49.52083 39274 ft 522 kts 26°
2026-05-04 09:18 -26.37930 -49.47390 39275 ft 521 kts 26°
2026-05-04 09:19 -26.32024 -49.42705 39278 ft 520 kts 26°
2026-05-04 09:19 -26.26120 -49.38027 39275 ft 521 kts 26°
2026-05-04 09:20 -26.20214 -49.33353 39275 ft 520 kts 26°
2026-05-04 09:20 -26.14306 -49.28685 39275 ft 520 kts 26°
2026-05-04 09:21 -26.08414 -49.24136 39251 ft 514 kts 22°
2026-05-04 09:21 -26.02309 -49.20079 39279 ft 509 kts 19°
2026-05-04 09:22 -25.96166 -49.16134 39283 ft 509 kts 20°
2026-05-04 09:22 -25.90046 -49.12123 39285 ft 510 kts 20°
2026-05-04 09:23 -25.83949 -49.08069 39288 ft 511 kts 20°
2026-05-04 09:23 -25.77902 -49.04035 39275 ft 510 kts 20°
2026-05-04 09:25 -25.53584 -48.87895 39283 ft 508 kts 21°
2026-05-04 09:26 -25.47494 -48.83866 39274 ft 509 kts 20°
2026-05-04 09:26 -25.41405 -48.80034 39285 ft 504 kts 18°
2026-05-04 09:27 -25.35242 -48.76346 39289 ft 504 kts 18°
2026-05-04 09:27 -25.29071 -48.72647 39281 ft 504 kts 18°
2026-05-04 09:28 -25.22909 -48.68923 39283 ft 504 kts 18°
2026-05-04 09:28 -25.16750 -48.65211 39275 ft 505 kts 18°
2026-05-04 09:29 -25.10586 -48.61487 39282 ft 504 kts 18°
2026-05-04 09:29 -25.04414 -48.57765 39276 ft 504 kts 18°
2026-05-04 09:30 -24.98259 -48.54082 39276 ft 503 kts 18°
2026-05-04 09:30 -24.92123 -48.50390 39269 ft 503 kts 18°
2026-05-04 09:31 -24.86000 -48.46685 39273 ft 502 kts 18°
2026-05-04 09:31 -24.79889 -48.42984 39267 ft 500 kts 18°
2026-05-04 09:32 -24.73824 -48.39326 39265 ft 499 kts 18°
2026-05-04 09:34 -24.49541 -48.24736 39263 ft 497 kts 18°
2026-05-04 09:34 -24.43471 -48.21105 39261 ft 496 kts 18°
2026-05-04 09:35 -24.37428 -48.17486 39264 ft 494 kts 18°
2026-05-04 09:35 -24.31385 -48.13874 39263 ft 494 kts 17°
2026-05-04 09:37 -24.07184 -47.99636 39259 ft 494 kts 18°
2026-05-04 09:38 -24.04180 -47.97866 38834 ft 488 kts 17°
2026-05-04 09:38 -24.01195 -47.96113 37624 ft 488 kts 18°
2026-05-04 09:38 -23.98186 -47.94354 36328 ft 493 kts 18°
2026-05-04 09:38 -23.95150 -47.92578 35073 ft 497 kts 19°
2026-05-04 09:39 -23.92097 -47.90791 33793 ft 499 kts 19°
2026-05-04 09:39 -23.89034 -47.88996 32395 ft 500 kts 19°
2026-05-04 09:39 -23.85972 -47.87201 31086 ft 498 kts 20°
2026-05-04 09:39 -23.82931 -47.85418 29786 ft 494 kts 20°
2026-05-04 09:40 -23.79910 -47.83647 28331 ft 490 kts 20°
2026-05-04 09:40 -23.77019 -47.81847 26896 ft 493 kts 27°
2026-05-04 09:40 -23.74332 -47.79456 25722 ft 504 kts 37°
2026-05-04 09:40 -23.71798 -47.76801 25210 ft 502 kts 39°
2026-05-04 09:41 -23.69318 -47.74168 24863 ft 492 kts 39°
2026-05-04 09:42 -23.53000 -47.56973 21200 ft 419 kts 40°
2026-05-04 09:43 -23.50891 -47.54766 20777 ft 418 kts 40°
2026-05-04 09:43 -23.48798 -47.52578 20331 ft 417 kts 40°
2026-05-04 09:43 -23.46709 -47.50391 19902 ft 417 kts 40°
2026-05-04 09:43 -23.44621 -47.48206 19473 ft 416 kts 41°
2026-05-04 09:44 -23.42533 -47.46021 19054 ft 416 kts 41°
2026-05-04 09:44 -23.40448 -47.43838 18605 ft 415 kts 41°
2026-05-04 09:44 -23.39072 -47.42399 18278 ft 414 kts 41°
2026-05-04 09:46 -23.24925 -47.27616 15330 ft 393 kts 42°
2026-05-04 09:46 -23.22950 -47.25555 14833 ft 393 kts 43°
2026-05-04 09:46 -23.20980 -47.23501 14384 ft 392 kts 43°
2026-05-04 09:47 -23.19016 -47.21455 13961 ft 390 kts 43°
2026-05-04 09:47 -23.17205 -47.19273 13497 ft 387 kts 56°
2026-05-04 09:49 -23.22990 -47.02744 10701 ft 345 kts 125°
2026-05-04 09:49 -23.24304 -47.00615 10592 ft 333 kts 125°
2026-05-04 09:49 -23.25571 -46.98553 10462 ft 323 kts 125°
2026-05-04 09:51 -23.32503 -46.87215 9249 ft 285 kts 125°
2026-05-04 09:51 -23.33587 -46.85437 8728 ft 279 kts 126°
2026-05-04 09:51 -23.34650 -46.83694 8191 ft 275 kts 125°
2026-05-04 09:51 -23.35705 -46.81967 7633 ft 275 kts 124°
2026-05-04 09:52 -23.36758 -46.80237 7385 ft 271 kts 124°
2026-05-04 09:52 -23.37787 -46.78551 7281 ft 263 kts 124°
2026-05-04 09:52 -23.38780 -46.76918 7176 ft 255 kts 124°
2026-05-04 09:52 -23.39737 -46.75351 7112 ft 247 kts 124°
2026-05-04 09:53 -23.40671 -46.73813 7095 ft 240 kts 124°
2026-05-04 09:53 -23.41568 -46.72322 7036 ft 231 kts 125°
2026-05-04 09:53 -23.42443 -46.70882 6810 ft 225 kts 124°
2026-05-04 09:53 -23.43308 -46.69481 6520 ft 222 kts 126°
2026-05-04 09:54 -23.44180 -46.68102 6176 ft 220 kts 126°
2026-05-04 09:54 -23.45068 -46.66696 5785 ft 216 kts 126°
2026-05-04 09:54 -23.45911 -46.65367 5411 ft 211 kts 126°
2026-05-04 09:54 -23.46722 -46.64068 5202 ft 202 kts 124°
2026-05-04 09:55 -23.47173 -46.62680 5092 ft 193 kts 97°
2026-05-04 09:55 -23.47156 -46.61224 4836 ft 193 kts 86°
2026-05-04 09:55 -23.46837 -46.59814 4575 ft 191 kts 75°
2026-05-04 09:55 -23.46482 -46.58434 4302 ft 188 kts 80°
2026-05-04 09:56 -23.46135 -46.57096 4056 ft 179 kts 78°
2026-05-04 09:56 -23.45790 -46.55839 3826 ft 167 kts 78°
2026-05-04 09:56 -23.45484 -46.54674 3654 ft 153 kts 78°
2026-05-04 09:56 -23.45197 -46.53606 3450 ft 141 kts 78°
2026-05-04 09:57 -23.44930 -46.52606 3262 ft 137 kts 78°
2026-05-04 09:57 -23.44662 -46.51610 3075 ft 137 kts 77°
2026-05-04 09:57 -23.44387 -46.50602 2872 ft 140 kts 78°
2026-05-04 09:57 -23.44109 -46.49566 2704 ft 144 kts 78°
2026-05-04 09:58 -23.43834 -46.48537 2493 ft 142 kts 78°
2026-05-04 09:58 -23.43588 -46.47615 2477 ft 103 kts 73°
2026-05-04 09:58 -23.43434 -46.47053 2474 ft 56 kts 73°
2026-05-04 10:00 -23.42701 -46.46217 2475 ft 13 kts 342°
2026-05-04 10:00 -23.42630 -46.46252 2476 ft 10 kts 310°
2026-05-04 10:02 -23.42834 -46.47090 2474 ft 20 kts 254°
2026-05-04 10:04 -23.42764 -46.47410 2474 ft 2 kts 73°
2026-05-04 10:04 -23.42763 -46.47405 2475 ft 0 kts 73°